Dades meteomassalio
Diari Summary for Abril 10, 2017 Units:  English    Metric   Both
« Previous Day
Next Day »
Diari Semanal Mensual Anual Personalitzat
  Maxima: Minima: Mijana:
Temperatura: TemperatureC °F 11.9 °F 16.6 °F
Rosada: DewpointC °F 4.9 °F 6.2 °F
Humitat: Humidity % 29 % 50 %
Velocitat del vent: WindSpeedKMH mph 0.0 mph 0.1 mph
Racha vent: WindSpeedGustKMH mph - -
Vent:- - ENE
Pressio: PressurehPa in 1020.9 in -
Pluja: 0.0 in    
Historical Graphs
 
 
Tabular Data for Abril 10, 2017
Time Temperature Dew Point Pressure Wind Wind Speed Wind Gust Humidity Rainfall Rate (Hourly) solar Conditions
TemperatureC °F DewpointC °F PressurehPa in Calm     Humidity % HourlyPrecipMM in SolarRadiationWatts/m^2 W/m2 Conditions
20:02 24.2 °F 5.0 °F 1020.9 in Calm     29 % 0.0 in 33.0 W/m2 BKN
20:07 24.1 °F 4.9 °F 1020.9 in Calm     29 % 0.0 in 21.0 W/m2 BKN
20:12 23.7 °F 5.6 °F 1020.9 in ENE 5.6 mph 5.6 mph 31 % 0.0 in 16.0 W/m2 BKN
20:17 23.2 °F 6.1 °F 1020.9 in Calm     33 % 0.0 in 14.0 W/m2 BKN
20:22 22.9 °F 6.2 °F 1020.9 in Calm     34 % 0.0 in 11.0 W/m2 BKN
20:28 22.6 °F 6.4 °F 1020.9 in Calm     35 % 0.0 in 7.0 W/m2 BKN
20:33 22.3 °F 6.6 °F 1020.9 in Calm     36 % 0.0 in 5.0 W/m2 OVC
20:38 22.1 °F 6.7 °F 1020.9 in Calm     37 % 0.0 in 0.0 W/m2 OVC
20:43 21.8 °F 6.5 °F 1020.9 in Calm     37 % 0.0 in 0.0 W/m2 OVC
20:48 21.5 °F 6.6 °F 1020.9 in Calm     38 % 0.0 in 0.0 W/m2 CLR
20:53 21.2 °F 6.7 °F 1020.9 in Calm     39 % 0.0 in 0.0 W/m2 CLR
20:58 20.9 °F 6.4 °F 1021.2 in Calm     39 % 0.0 in 0.0 W/m2 CLR
21:03 20.5 °F 6.4 °F 1021.2 in Calm     40 % 0.0 in 0.0 W/m2 CLR
21:08 20.0 °F 6.7 °F 1021.2 in Calm     42 % 0.0 in 0.0 W/m2 CLR
21:13 19.6 °F 6.9 °F 1021.2 in Calm     44 % 0.0 in 0.0 W/m2 CLR
21:18 19.1 °F 6.9 °F 1021.2 in Calm     45 % 0.0 in 0.0 W/m2 CLR
21:23 18.7 °F 7.2 °F 1021.2 in Calm     47 % 0.0 in 0.0 W/m2 CLR
21:28 18.4 °F 6.9 °F 1021.2 in Calm     47 % 0.0 in 0.0 W/m2 CLR
21:33 18.1 °F 6.9 °F 1021.6 in Calm     48 % 0.0 in 0.0 W/m2 CLR
21:38 17.5 °F 6.9 °F 1021.6 in Calm     50 % 0.0 in 0.0 W/m2 CLR
21:43 17.0 °F 6.8 °F 1021.9 in Calm     51 % 0.0 in 0.0 W/m2 CLR
21:48 16.6 °F 6.7 °F 1021.9 in Calm     52 % 0.0 in 0.0 W/m2 CLR
21:53 16.3 °F 6.4 °F 1021.9 in Calm     52 % 0.0 in 0.0 W/m2 CLR
21:58 15.9 °F 6.6 °F 1021.9 in Calm     54 % 0.0 in 0.0 W/m2 CLR
22:03 15.6 °F 6.6 °F 1021.9 in Calm     55 % 0.0 in 0.0 W/m2 CLR
22:08 15.4 °F 6.4 °F 1021.9 in Calm     55 % 0.0 in 0.0 W/m2 CLR
22:13 15.2 °F 6.5 °F 1021.9 in Calm     56 % 0.0 in 0.0 W/m2 CLR
22:18 15.1 °F 6.6 °F 1021.9 in Calm     57 % 0.0 in 0.0 W/m2 CLR
22:23 14.9 °F 6.4 °F 1021.9 in Calm     57 % 0.0 in 0.0 W/m2 CLR
22:28 14.4 °F 6.3 °F 1021.9 in Calm     58 % 0.0 in 0.0 W/m2 CLR
22:33 14.1 °F 6.4 °F 1022.2 in Calm     60 % 0.0 in 0.0 W/m2 CLR
22:38 13.9 °F 6.2 °F 1022.2 in Calm     60 % 0.0 in 0.0 W/m2 CLR
22:43 13.7 °F 6.3 °F 1022.2 in Calm     61 % 0.0 in 0.0 W/m2 CLR
22:48 13.6 °F 6.4 °F 1022.2 in Calm     62 % 0.0 in 0.0 W/m2 CLR
22:53 13.4 °F 6.3 °F 1022.2 in Calm     62 % 0.0 in 0.0 W/m2 CLR
22:58 13.2 °F 6.1 °F 1022.2 in Calm     62 % 0.0 in 0.0 W/m2 CLR
23:03 13.2 °F 6.1 °F 1022.2 in Calm     62 % 0.0 in 0.0 W/m2 CLR
23:08 13.1 °F 6.2 °F 1022.2 in Calm     63 % 0.0 in 0.0 W/m2 CLR
23:13 13.0 °F 6.1 °F 1022.2 in Calm     63 % 0.0 in 0.0 W/m2 CLR
23:18 12.8 °F 5.9 °F 1022.2 in Calm     63 % 0.0 in 0.0 W/m2 CLR
23:23 12.7 °F 6.1 °F 1022.2 in Calm     64 % 0.0 in 0.0 W/m2 CLR
23:28 12.7 °F 5.8 °F 1022.2 in Calm     63 % 0.0 in 0.0 W/m2 CLR
23:33 12.9 °F 5.8 °F 1022.2 in Calm     62 % 0.0 in 0.0 W/m2 CLR
23:38 12.8 °F 5.9 °F 1022.6 in Calm     63 % 0.0 in 0.0 W/m2 CLR
23:43 12.7 °F 5.8 °F 1022.2 in Calm     63 % 0.0 in 0.0 W/m2 CLR
23:48 12.4 °F 5.8 °F 1022.2 in Calm     64 % 0.0 in 0.0 W/m2 CLR
23:53 12.1 °F 5.7 °F 1022.6 in Calm     65 % 0.0 in 0.0 W/m2 CLR
23:58 11.9 °F 5.7 °F 1022.6 in Calm     66 % 0.0 in 0.0 W/m2 CLR
Lo Temps de Massalio
Compliments of Weather Underground - 512 kb